COSMOS 1275 DEB, 19025

Orbit data source: Space-Track

COSMOS 1275 DEB, 19025 is space debris in LEO originally from a launch on Thu, 04 Jun 1981 UTC launched from the Plesetsk Missile And Space Complex (PKMTR). Debris objects in space refer to the collection of defunct objects orbiting the Earth. Examples of debris include non-operational satellites, rocket bodies, and fragments generated from explosions, collisions, or faulty payload assembly.

Loading next visibility...
Identifier
19025, 1981-053MC
Orbit
LEO
Country
Flag of CISCIS
Related business
Manufacturer
Unknown
Mission
Spacecraft
Bus & Motor
Unknown
Mass
Unknown
Launch date (UTC)
1981-06-04 (45 years ago)
Launch vehicle
Unknown
Launch site
Plesetsk Missile And Space Complex (PKMTR)
Object type
Payload
Rocket body
Debris
Shape & HBR
Unknown shape, 0.1 m
Radar Cross Section
Small (<0.1 m²)

Expand to show TLE details & history
Last TLE update: 2 days ago

TLE from 2 days ago
0 COSMOS 1275 DEB
1 19025U 81053MC  26099.16337844  .00002911  00000-0  11038-2 0  9994
2 19025  82.7052 175.5439 0020578  13.6148 346.5589 14.30743045 93364
Epoch: 2026-04-09T03:55Z
TLE epoch observation values (Epoch: 2026-04-09T03:55:15.897Z)
Latitude
-0.00002°
Longitude
-80.68767°
Altitude
777.873 km
Speed
7.472 km/s
True Right ascension
11h 42m 10s
True Declination
0° 00' 00"
Sunlit
Object was in full shadow at epoch
Visualization orbit readout
Latitude
Unknown
Longitude
Unknown
Altitude
Unknown
Speed
Unknown
Apparent Right ascension
Unknown
Apparent Declination
Unknown
Sunlit
N/A
Visualization observer readout
Local Sidereal Time
02:58:09
Azimuth
Unknown
Elevation
Unknown
Doppler factor
Unknown
Orbital elements
Apogee altitude
801.073 km
Perigee altitude
771.587 km
Semi-major axis
7,164.467 km
Eccentricity
0.00206
Inclination
82.7052°
RAAN
175.5439°
Arg. of periapsis
13.6148°
True anomaly
346.50395°
Mean anomaly
346.5589°
Eccentric anomaly
346.53144°
Mean motion
3.57905 °/min
Orbital period
100.59 mins
BSTAR
0.0011038
Loading maneuver chart data...
Computing Atmospheric mass density...

Documentation

Showing up to 5 results
|